SCP
3 3 2 2 2 2 3 3 3 3 4 4 5 5 4 4 3 3 5 4 3 2 2 1 1 1 1 1 1 1 0 0 0 0 0 0 0 0 0 0 0 0 0
3 2 2 2 2 2 2 2 2 3 3 4 4 3 3 2 2 3 3 3 2 2 1 1 1 1 1 1 1 0 0 0 0 0 0 0 0 0 0 0 0 0 0
2 2 2 1 1 1 1 1 2 2 3 3 2 2 1 1 1 1 2 1 1 1 0 0 0 0 0 0 0 0 0 0 0 0 0 0 0 0 0 0 0 0 0
2 2 1 1 1 1 1 1 1 2 2 1 1 1 1 0 0 1 1 0 0 0 0 0 0 0 0 0 0 0 0 0 0 0 0 0 0 0 0 0 0 0 0
1 1 1 1 1 1 1 1 1 1 1 0 0 0 0 0 0 0 0 0 0 0 0 0 0 0 0 0 0 0 0 0 0 0 0 0 0 0 0 0 0 0 0
1 1 1 1 1 1 1 1 0 0 0 0 0 0 0 0 0 0 0 0 0 0 0 0 0 0 0 0 0 0 0 0 0 0 0 0 0 0 0 0 0 0 0
1 1 1 1 1 1 1 0 0 0 0 0 0 0 0 0 0 0 0 0 0 0 0 0 0 0 0 0 0 0 0 0 0 0 0 0 0 0 0 0 0 0 0
1 1 1 1 1 1 0 0 0 0 0 0 0 0 0 0 0 0 0 0 0 0 0 0 0 0 0 0 0 0 0 0 0 0 0 0 0 0 0 0 0 0 0
1 1 1 1 1 1 0 0 0 0 0 0 0 0 0 0 0 0 0 0 0 0 0 0 0 0 0 0 0 0 0 0 0 0 0 0 0 0 0 0 0 0 0
1 1 1 1 1 1 1 1 1 0 0 0 0 0 0 0 0 0 0 0 0 0 0 0 0 0 0 0 0 0 0 0 0 0 0 0 0 0 0 0 0 0 0
1 1 1 1 1 1 1 1 1 0 0 0 0 0 0 0 0 0 0 0 0 0 0 0 0 0 0 0 0 0 0 0 0 0 0 0 0 0 0 0 0 0 0
1 1 1 1 1 1 1 1 1 0 0 0 0 0 0 0 0 0 0 0 0 0 0 0 0 0 0 0 0 0 0 0 0 0 0 0 0 0 0 0 0 0 0
2 2 2 1 1 1 1 1 1 0 0 0 0 0 0 0 0 0 0 0 0 0 0 0 0 0 0 0 0 0 0 0 0 0 0 0 0 0 0 0 0 0 0
2 2 2 1 1 1 1 1 1 0 0 0 0 0 0 0 0 0 0 0 0 0 0 0 0 0 0 0 0 0 0 0 0 0 0 0 0 0 0 0 0 0 0
2 2 2 1 1 1 1 1 0 0 0 0 0 0 0 0 0 0 0 0 0 0 0 0 0 0 0 0 0 0 0 0 0 0 0 0 0 0 0 0 0 0 0
2 2 1 1 1 1 1 0 0 0 0 0 0 0 0 0 0 0 0 0 0 0 0 0 0 0 0 0 0 0 0 0 0 0 0 0 0 0 0 0 0 0 0
2 1 1 1 1 1 1 0 0 0 0 0 0 0 0 0 0 0 0 0 0 0 0 0 0 0 0 0 0 0 0 0 0 0 0 0 0 0 0 0 0 0 0
1 1 1 1 1 1 1 0 0 0 0 0 0 0 0 0 0 0 0 0 0 0 0 0 0 0 0 0 0 0 0 0 0 0 0 0 0 0 0 0 0 0 0
1 1 1 1 1 1 0 0 0 0 0 0 0 0 0 0 0 0 0 0 0 0 0 0 0 0 0 0 0 0 0 0 0 0 0 0 0 0 0 0 0 0 0
1 1 1 1 1 0 0 0 0 0 0 0 0 0 0 0 0 0 0 0 0 0 0 0 0 0 0 0 0 0 0 0 0 0 0 0 0 0 0 0 0 0 0
0 0 0 0 0 0 0 0 0 0 0 0 0 0 0 0 0 0 0 0 0 0 0 0 0 0 0 0 0 0 0 0 0 0 0 0 0 0 0 0 0 0 0
0 0 0 0 0 0 0 0 0 0 0 0 0 0 0 0 0 0 0 0 0 0 0 0 0 0 0 0 0 0 0 0 0 0 0 0 0 0 0 0 0 0 0
0 0 0 0 0 0 0 0 0 0 0 0 0 0 0 0 0 0 0 0 0 0 0 0 0 0 0 0 0 0 0 0 0 0 0 0 0 0 0 0 0 0 0
0 0 0 0 0 0 0 0 0 0 0 0 0 0 0 0 0 0 0 0 0 0 0 0 0 0 0 0 0 0 0 0 0 0 0 0 0 0 0 0 0 0 0
0 0 0 0 0 0 0 0 0 0 0 0 0 0 0 0 0 0 0 0 0 0 0 0 0 0 0 0 0 0 0 0 0 0 0 0 0 0 0 0 0 0 0
0 0 0 0 0 0 0 0 0 0 0 0 0 0 0 0 0 0 0 0 0 0 0 0 0 0 0 0 0 0 0 0 0 0 0 0 0 0 0 0 0 0 0
Wind_Speed
3 5 5 6 6 7 6 7 7 5 3 1 1 2 2 3 3 4 4 4 4 4 3 4 4 3 2 2 2 2 1 2 2 3 2 2 2 3 4 5 5 3 4
2 3 4 4 6 6 6 7 7 6 3 2 3 4 5 5 4 5 5 6 6 6 5 5 4 4 4 4 3 3 2 1 1 2 2 2 2 3 4 5 5 4 3
3 3 3 4 5 5 6 6 6 6 4 4 5 6 6 6 7 7 7 7 6 7 6 6 6 6 5 4 4 4 3 4 2 2 2 1 2 4 5 6 6 4 5
2 3 2 2 3 3 4 5 5 6 6 6 7 6 6 7 7 7 8 9 8 7 7 8 8 7 6 5 4 5 5 4 4 3 3 3 4 6 5 6 6 5 5
2 2 1 1 1 2 3 4 4 5 6 6 7 7 6 6 6 7 7 9 8 7 7 7 8 8 8 6 5 5 5 5 4 5 4 4 5 5 6 5 6 5 5
3 3 2 1 2 3 3 3 3 4 5 5 6 7 7 7 8 8 7 7 7 7 6 5 6 6 6 5 5 4 4 5 4 4 4 5 5 5 5 6 5 6 5
4 4 3 3 4 4 3 4 3 4 4 4 5 6 7 7 9 9 8 5 5 5 5 4 5 8 8 5 3 1 1 1 1 2 4 4 4 4 5 6 6 7 5
5 5 4 5 6 5 5 4 4 4 4 3 5 5 5 6 9 10 7 4 5 6 7 7 8 8 8 7 4 3 3 3 3 2 2 3 4 4 4 6 7 7 4
6 6 6 6 6 7 6 6 5 4 4 4 5 5 5 4 7 9 7 3 4 7 8 8 7 7 10 11 6 6 6 5 4 4 6 7 9 9 6 4 6 6 6
6 6 6 6 6 7 7 7 5 5 5 5 5 5 5 5 6 7 7 0 4 6 6 7 10 8 8 10 6 5 5 5 7 8 4 4 3 3 3 2 4 5 6
6 6 6 7 6 7 7 7 6 6 6 5 6 5 5 6 6 6 6 2 1 4 5 6 4 5 6 7 5 3 4 5 6 5 3 4 4 4 5 4 4 4 4
6 7 7 7 8 8 8 8 7 7 7 6 6 5 5 5 5 5 6 6 4 3 5 6 5 3 2 4 4 5 9 8 3 3 4 4 4 4 4 4 5 4 4
6 7 7 8 6 7 9 9 8 7 7 7 7 6 6 5 4 5 5 7 8 6 5 7 6 4 2 3 5 6 6 3 4 4 4 4 3 4 4 4 5 5 5
7 7 6 7 7 8 7 7 8 8 7 7 7 7 7 7 6 5 4 4 7 6 5 5 5 4 4 5 4 3 1 2 3 3 3 3 4 4 3 3 4 4 4
8 8 8 8 8 8 7 5 6 5 6 7 6 7 8 7 7 7 5 4 4 4 4 3 3 4 4 4 2 2 2 3 3 3 3 3 4 4 4 3 3 4 4
9 8 8 7 7 8 8 6 6 5 7 7 5 6 7 11 15 13 11 10 9 7 3 3 4 3 2 2 2 2 3 3 2 2 3 3 3 3 4 4 4 4 4
9 9 8 8 9 9 9 9 8 6 6 7 8 11 14 17 16 15 12 9 7 4 2 3 2 2 2 2 2 3 3 3 2 2 2 2 3 3 3 3 3 4 4
11 10 9 8 9 10 10 10 10 11 9 6 6 13 17 16 15 14 12 7 4 3 4 4 2 3 2 2 2 3 2 2 2 1 2 2 3 3 3 3 3 4 4
9 9 9 9 9 9 10 11 11 12 11 10 9 7 9 12 11 9 8 5 6 6 7 5 3 3 3 3 3 2 1 1 2 1 1 2 2 3 3 3 3 4 4
7 11 11 9 10 10 10 11 10 10 11 12 12 11 10 9 8 7 6 6 7 6 6 6 5 5 4 4 4 3 2 2 2 1 1 1 1 2 3 3 3 4 4
7 10 12 11 10 10 10 11 10 10 11 11 12 14 17 12 11 11 10 9 8 8 7 5 5 6 5 5 4 5 4 3 2 2 1 1 1 2 2 3 4 4 4
6 7 10 12 10 9 10 10 10 9 11 12 10 14 21 14 11 11 11 11 10 8 7 5 5 6 7 7 6 5 5 4 3 3 2 1 1 1 2 3 3 3 4
6 8 9 11 11 10 10 10 10 9 10 10 11 13 14 12 12 11 11 11 10 9 8 6 5 5 5 6 6 6 6 4 4 5 3 2 1 1 1 2 3 3 4
6 7 8 10 11 11 11 10 10 10 9 10 10 13 14 12 11 10 9 8 8 9 8 7 7 7 7 6 6 6 6 5 6 5 6 3 2 1 1 1 2 3 3
6 6 7 7 9 10 11 11 11 10 9 9 9 11 13 13 11 10 8 7 7 7 8 7 6 7 9 9 8 6 8 10 8 7 6 4 3 2 1 0 0 2 2
6 6 6 5 7 8 8 10 10 10 9 9 8 8 10 11 11 11 8 7 6 6 7 6 7 8 9 8 9 11 11 11 11 9 6 5 5 3 3 1 1 1 1
Wind_Direction
335 335 338 343 342 345 347 348 342 326 323 314 116 105 97 99 124 133 129 131 131 124 121 119 99 69 48 15 32 41 35 23 340 332 356 356 19 342 328 310 296 266 230
332 328 346 360 357 358 0 5 6 358 356 57 90 91 91 83 88 107 114 115 114 108 102 98 88 84 65 41 21 32 28 12 331 330 319 340 13 4 341 318 327 334 311
323 328 355 7 10 10 10 16 16 21 27 54 75 80 81 79 78 81 89 94 94 94 91 87 77 69 56 40 37 31 13 7 338 313 314 9 31 14 352 342 343 336 331
304 322 356 18 26 27 26 32 30 33 44 62 66 66 74 79 88 95 95 89 84 78 75 74 68 63 48 16 40 29 18 355 343 353 10 27 27 7 3 347 340 343 342
288 301 298 69 87 81 62 56 55 52 55 62 68 63 66 73 72 81 97 101 96 88 79 79 79 79 65 44 47 28 19 14 12 12 20 26 20 9 1 337 340 334 332
258 256 225 175 145 132 118 104 87 78 67 63 68 67 62 67 56 61 81 95 96 97 95 97 105 74 67 62 60 53 43 39 26 13 22 16 10 4 344 336 336 336 329
236 236 210 187 172 159 151 135 120 105 97 87 83 80 76 65 59 64 67 86 95 94 88 77 80 65 43 24 18 104 113 84 22 19 21 357 353 355 340 332 330 326 314
227 227 210 191 182 170 164 157 148 139 133 121 107 99 93 72 54 51 52 81 91 87 76 69 73 59 30 8 2 29 47 47 11 28 5 332 337 336 330 322 320 328 327
226 220 205 192 184 177 175 170 162 154 150 142 128 122 111 86 57 49 35 89 96 85 74 61 71 66 29 21 22 29 29 12 355 326 297 292 299 304 306 326 339 346 341
224 213 196 185 185 182 177 172 166 162 160 152 142 137 130 108 72 54 19 101 123 111 104 90 72 66 42 30 24 25 21 353 335 327 318 315 320 348 4 4 354 348 338
209 196 188 183 185 180 172 170 167 169 164 157 147 143 133 123 97 64 35 47 131 148 138 115 93 71 47 25 12 19 354 315 303 311 350 16 12 15 14 6 2 347 338
198 190 186 183 191 181 169 170 174 172 163 157 154 149 141 136 115 97 71 56 32 82 102 109 119 118 46 354 347 339 333 326 317 3 24 16 11 12 352 347 347 340 328
198 192 188 186 191 169 171 174 174 173 174 170 170 168 161 147 129 120 95 73 73 82 94 119 142 169 237 276 272 295 319 349 8 17 19 10 360 354 347 353 349 345 350
198 191 188 183 180 175 178 178 179 182 186 182 180 176 164 157 159 162 153 126 111 117 131 148 172 205 252 283 280 258 220 64 16 14 12 1 354 353 0 359 353 348 357
195 191 192 187 181 178 179 175 188 182 190 185 184 177 168 166 160 164 167 157 159 141 152 175 196 206 216 221 197 134 90 75 36 18 18 7 0 357 357 358 354 356 2
197 196 194 187 181 177 170 145 64 115 122 130 147 165 151 141 137 124 116 112 113 125 157 216 207 198 178 145 110 101 96 80 40 21 27 13 359 353 356 358 6 6 1
204 197 195 189 183 180 177 167 152 110 87 95 115 127 133 141 140 134 129 123 115 122 203 245 209 150 136 127 102 83 82 94 64 23 30 15 357 350 359 360 12 6 352
214 204 198 191 187 185 182 180 175 170 166 145 112 129 139 144 143 139 137 138 159 195 230 241 197 156 154 135 104 86 75 91 81 27 27 20 359 348 358 358 12 11 341
224 211 200 196 193 191 184 186 184 181 178 166 147 139 143 138 131 136 149 187 201 207 219 222 196 165 167 150 125 118 118 99 90 347 31 35 1 351 359 359 2 1 347
234 229 207 198 197 193 189 190 188 182 180 172 169 164 159 165 168 170 191 209 222 228 227 209 188 175 166 154 147 159 187 172 163 204 73 42 13 358 352 4 9 2 4
231 229 215 205 200 197 193 190 188 183 183 178 174 170 170 182 186 186 192 204 219 233 237 217 195 174 166 164 171 181 198 199 177 154 113 64 24 359 350 10 11 11 12
236 230 216 208 202 199 193 190 191 188 187 184 175 166 170 184 193 194 197 202 210 222 235 225 210 188 182 182 181 186 197 198 180 161 162 170 163 358 13 22 13 4 12
242 234 220 207 203 195 192 192 193 194 191 188 175 163 175 193 197 200 202 201 201 207 214 213 212 212 190 179 176 181 195 194 171 153 156 176 164 135 76 43 2 355 23
254 242 227 205 199 197 194 193 195 198 195 190 177 167 179 195 206 206 205 202 200 200 200 201 203 206 202 180 178 185 186 169 156 152 158 168 160 125 99 76 11 357 7
254 248 236 215 199 197 192 191 195 200 196 192 185 178 180 191 204 214 212 208 206 201 199 198 198 202 205 200 190 172 158 154 153 151 151 162 162 141 126 87 8 331 344
257 248 241 219 201 196 191 188 193 198 197 193 191 187 186 188 195 204 209 209 208 205 204 203 205 203 200 197 181 164 155 151 150 150 156 161 159 154 152 183 252 294 329